Regional Weather Roundup
Issued by NWS

Home | Current Version | Previous Version | Text Only | Print | Product List | Glossary On
Versions: 1 2 3 4 5 6 7 8 9 10 11 12 13 14 15 16 17 18 19 20 21 22 23 24 25 26 27 28 29 30 31 32 33 34 35 36 37 38 39 40 41 42 43 44 45 46 47 48 49 50
722
ASUS43 KMPX 241701
RWRMN
WEATHER ROUNDUP FOR MINNESOTA
NATIONAL WEATHER SERVICE TWIN CITIES/CHANHASSEN MN
1200 PM CDT SUN SEP 24 2017


NOTE: "FAIR" INDICATES FEW OR NO CLOUDS BELOW 12,000 FEET WITH NO
SIGNIFICANT WEATHER AND/OR OBSTRUCTIONS TO VISIBILITY. N/A MEANS
CURRENT SKY AND/OR WEATHER CONDITIONS ARE NOT AVAILABLE.

MNZ060>063-068>070-241800-
   Twin Cities Metro

CITY           SKY/WX    TMP DP  RH WIND       PRES   REMARKS
TWIN CITIES    PTSUNNY   86  68  54 S10G18    29.93F
ST PAUL        MOSUNNY   84  68  58 SE8G18    29.93F
CRYSTAL        MOSUNNY   85  64  49 S10G20    29.91F
BLAINE         MOSUNNY   84  66  54 S14       29.92F
LAKEVILLE      SUNNY     84  66  54 S13       29.94F
EDEN PRAIRIE   CLOUDY    86  68  54 S14       29.91F
SOUTH ST PAUL  SUNNY     85  64  49 S15       29.93F
LAKE ELMO      FAIR      82  68  61 S14G20    29.96F
$$
MNZ001>005-007-008-013>017-022>024-027-028-241800-
   Northwest Minnesota

CITY           SKY/WX    TMP DP  RH WIND       PRES   REMARKS
BEMIDJI        CLOUDY    67  64  91 S8        29.84F
HALLOCK        RAIN      54  52  94 N12       29.89R
ROSEAU         LGT RAIN  55  52  88 N6        29.85F
CROOKSTON      LGT RAIN  54  54 100 N13       29.84S
FOSSTON        CLOUDY    63  61  94 S9        29.84R
DETROIT LAKES  CLOUDY    68  63  83 S9        29.84S
MOORHEAD       RAIN      57  55  94 N6        29.83S
PARK RAPIDS    CLOUDY    72  66  81 S14       29.84F
MAHNOMEN       CLOUDY    64  63  94 S6        29.83R
$$
MNZ006-009>011-018-025>026-241800-
   North Central Minnesota

CITY           SKY/WX    TMP DP  RH WIND       PRES   REMARKS
BAUDETTE       CLOUDY    62  61  96 SW7       29.84R
FLAG ISLAND    DRIZZLE   55  54  94 N8        29.84R
INTL FALLS     CLOUDY    67  64  90 VRB5      29.85S
WASKISH        CLOUDY    64  64 100 S5        29.84R
BIG FORK       CLOUDY    75  66  73 S9        29.86S
LONGVILLE      CLOUDY    75  66  73 S9        29.86F
GRAND RAPIDS   MOSUNNY   76  67  73 S16       29.89F
CRANE LAKE     CLOUDY    75  68  78 S7        29.87F
ORR            CLOUDY    75  64  69 S10G16    29.85S
COOK           MOSUNNY   75  66  73 S9G16     29.89S
WALKER         FAIR      71  66  82 S10G16    29.85S
$$
MNZ012-019>021-037-241800-
   Northeast Minnesota

CITY           SKY/WX    TMP DP  RH WIND       PRES   REMARKS
DULUTH         CLOUDY    73  67  81 S12       29.94S
ELY            MOSUNNY   77  64  65 S12G17    29.91S
HIBBING        CLOUDY    75  67  76 VRB7      29.90S
EVELETH        PTSUNNY   78  66  67 S8        29.91F
DULUTH HARBOR  CLOUDY    63  61  94 NE6       29.94F FOG
GRAND MARAIS     N/A     65  63  93 NE9       29.95F
$$
MNZ029>031-032-039>041-046>048-054>057-064-241800-
   West Central Minnesota

CITY           SKY/WX    TMP DP  RH WIND       PRES   REMARKS
FERGUS FALLS   PTSUNNY   70  68  94 SW14      29.83S
WHEATON        CLOUDY    70  63  78 SW9       29.85S
ALEXANDRIA     SUNNY     76  66  71 S15G22    29.87F
ELBOW LAKE     FAIR      71  66  83 S14       29.84F HAZE
WADENA         SUNNY     73  64  73 S17G23    29.84F
GLENWOOD       MOSUNNY   79  68  69 S17       29.87F
APPLETON       PTSUNNY   79  66  65 S9G16     29.83S
BENSON         MOSUNNY   81  66  61 SW17G24   29.85F
ORTONVILLE     CLOUDY    70  66  88 N5        29.84S
MADISON        PTSUNNY   82  66  57 SW18G24   29.83S
WILLMAR        FAIR      81  68  65 S8        29.88S
$$
MNZ033>034-036-042>043-049>051-058-059-241800-
   Central Minnesota

CITY           SKY/WX    TMP DP  RH WIND       PRES   REMARKS
ST CLOUD       MOSUNNY   80  68  66 S16G25    29.89F
SAUK CENTRE    FAIR      77  67  71 S15G22    29.87F
PAYNESVILLE    MOSUNNY   80  67  66 S10G18    29.89S
AITKIN         CLOUDY    77  66  69 S13G18    29.88S
PINE RIVER     MOSUNNY   73  64  73 S14       29.89F
BRAINERD       MOSUNNY   75  67  76 S10       29.87F
STAPLES        SUNNY     75  66  73 S15       29.86S
LITTLE FALLS   MOSUNNY   79  61  53 S12       29.88F
LITCHFIELD     MOSUNNY   82  68  61 S6        29.89F
BUFFALO        MOSUNNY   82  65  54 S8G18     29.92F
MAPLE LAKE     CLOUDY    83  70  64 S6        29.92S
HUTCHINSON     MOSUNNY   83  69  62 S12       29.91F
$$
MNZ037-044-045-052-053-241800-
   East Central Minnesota

CITY           SKY/WX    TMP DP  RH WIND       PRES   REMARKS
PRINCETON      MOSUNNY   84  68  58 S12       29.91S
MORA           MOSUNNY   79  64  61 S13       29.93S
RUSH CITY      MOSUNNY   82  67  59 S12       29.93S
MOOSE LAKE     MOSUNNY   79  64  61 S9        29.90F
HINCKLEY       FAIR      81  70  69 S13       29.93S
CLOQUET        CLOUDY    77  66  69 SE6       29.92F
MCGREGOR       PTSUNNY   79  66  65 S9G16     29.90F
$$
MNZ071>073-080-081-089-090-097-098-241800-
   Southwest Minnesota

CITY           SKY/WX    TMP DP  RH WIND       PRES   REMARKS
MONTEVIDEO     MOSUNNY   82  70  65 SW13G18   29.85S
GRANITE FALLS  MOSUNNY   82  69  63 S15G22    29.87S
CANBY          PTSUNNY   80  66  63 S15G22    29.85S
MARSHALL       MOSUNNY   83  67  58 S21G26    29.85F
REDWOOD FALLS  PTSUNNY   85  64  49 S20       29.87F
OLIVIA         MOSUNNY   81  64  57 S13G18    29.87F
PIPESTONE      MOSUNNY   79  66  65 S14       29.89R
WORTHINGTON    SUNNY     83  64  52 S20G28    29.91F
JACKSON        MOSUNNY   82  63  51 S17G23    29.93F
TRACY          MOSUNNY   83  68  59 S13G24    29.88F
SLAYTON        SUNNY     81  59  47 S20G29    29.90F
$$
MNZ065>067-074>077-082>085-091>093-241800-
   South Central Minnesota

CITY           SKY/WX    TMP DP  RH WIND       PRES   REMARKS
MANKATO        SUNNY     85  67  54 S14       29.93F
NEW ULM        MOSUNNY   84  64  51 S17G23    29.90F
ST JAMES       MOSUNNY   84  63  48 S14G24    29.92S
FAIRMONT       SUNNY     85  65  51 S18G24    29.93F
FARIBAULT      SUNNY     84  66  54 S13       29.95F
OWATONNA       SUNNY     84  66  54 S12       29.96F
WASECA         SUNNY     84  63  48 S12G21    29.96F
ALBERT LEA     SUNNY     88  64  45 S10       29.97S
$$
MNZ078>079-086>088-094>096-241800-
   Southeast Minnesota

CITY           SKY/WX    TMP DP  RH WIND       PRES   REMARKS
ROCHESTER      SUNNY     85  63  47 S16       29.99F
RED WING       SUNNY     86  61  42 S7        29.94F
STANTON        SUNNY     86  65  49 S16       29.93F
DODGE CENTER   SUNNY     84  61  45 S15       29.98F
WINONA         SUNNY     86  63  45 S5        29.98F
AUSTIN         SUNNY     82  63  51 S9        29.98F
PRESTON        SUNNY     83  61  47 S14G20    30.01F
$$
ABBREVIATIONS USED IN REMARKS
   TC - TEMPERATURES IN CELSIUS
  WCI - WIND CHILL INDEX
   HX - HEAT INDEX
  VSB - VISIBILITY
$$




USA.gov is the U.S. government's official web portal to all federal, state and local government web resources and services.